This is the latest recevied weather packets stored in our database for station/object KC5TIL-3. If no packets are shown the sender has not sent any weather packets the latest 10 day(s).
| Time | Temp. | Humidity | Pressure | Rain* | Wind** | Luminosity | Snow |
|---|---|---|---|---|---|---|---|
| 1777136207 | 26.67° C | 42% | 1005.8 hPa | 0 mm | 4.02 m/s, 212° | - | - |
| 1777135905 | 26.67° C | 40% | 1005.8 hPa | 0 mm | 3.58 m/s, 211° | - | - |
| 1777135603 | 26.67° C | 40% | 1005.8 hPa | 0 mm | 3.13 m/s, 143° | - | - |
| 1777135305 | 26.67° C | 42% | 1005.8 hPa | 0 mm | 3.13 m/s, 209° | - | - |
| 1777135003 | 26.67° C | 40% | 1005.8 hPa | 0 mm | 4.02 m/s, 187° | - | - |
| 1777134705 | 26.67° C | 41% | 1005.8 hPa | 0 mm | 3.58 m/s, 158° | - | - |
| 1777134407 | 26.67° C | 41% | 1005.8 hPa | 0 mm | 3.13 m/s, 152° | - | - |
| 1777134106 | 26.67° C | 41% | 1005.8 hPa | 0 mm | 4.47 m/s, 188° | - | - |
| 1777133808 | 26.11° C | 41% | 1005.8 hPa | 0 mm | 4.47 m/s, 217° | - | - |
| 1777133510 | 26.67° C | 41% | 1005.8 hPa | 0 mm | 5.36 m/s, 212° | - | - |
| 1777133208 | 26.11° C | 41% | 1005.8 hPa | 0 mm | 5.81 m/s, 205° | - | - |
| 1777132910 | 26.11° C | 41% | 1005.8 hPa | 0 mm | 4.92 m/s, 219° | - | - |
| 1777132612 | 26.11° C | 43% | 1005.8 hPa | 0 mm | 5.36 m/s, 215° | - | - |
| 1777132306 | 26.11° C | 43% | 1004.8 hPa | 0 mm | 4.47 m/s, 184° | - | - |
| 1777132008 | 26.11° C | 46% | 1004.8 hPa | 0 mm | 5.36 m/s, 132° | - | - |
| 1777131710 | 26.11° C | 48% | 1004.8 hPa | 0 mm | 4.47 m/s, 202° | - | - |
| 1777131408 | 26.11° C | 52% | 1004.8 hPa | 0 mm | 2.68 m/s, 195° | - | - |
| 1777131110 | 25.56° C | 53% | 1004.8 hPa | 0 mm | 5.36 m/s, 205° | - | - |
| 1777130812 | 25.56° C | 54% | 1004.8 hPa | 0 mm | 3.58 m/s, 221° | - | - |
| 1777130511 | 25.56° C | 54% | 1004.8 hPa | 0 mm | 4.02 m/s, 184° | - | - |
| 1777130213 | 25.56° C | 56% | 1004.8 hPa | 0 mm | 5.81 m/s, 217° | - | - |
| 1777129915 | 25.56° C | 57% | 1004.8 hPa | 0 mm | 4.47 m/s, 193° | - | - |
| 1777129613 | 25.56° C | 59% | 1004.8 hPa | 0 mm | 4.47 m/s, 194° | - | - |
| 1777129310 | 25° C | 59% | 1004.8 hPa | 0 mm | 4.47 m/s, 210° | - | - |
| 1777129012 | 25° C | 58% | 1004.8 hPa | 0 mm | 5.36 m/s, 213° | - | - |
* Rain latest hour (hover to see other rain measurements)
** Current wind speed in m/s (hover to see current wind gust speed)